Tracking 33200 objects as of 17-Feb-2026
HD Live streaming from Space Station
objects crossing your sky now

DELTA 1 DEB

Track DELTA 1 DEB now!
10-day predictions


NORAD ID: 7191
Int'l Code: 1973-086EZ
Perigee: 1,431.0 km
Apogee: 1,826.8 km
Inclination: 102.1 °
Period: 118.7 minutes
Semi major axis: 7999 km
RCS: 0.0206 m2 (small)
Launch date: November 6, 1973
Source: United States (US)
Launch site: AIR FORCE WESTERN TEST RANGE (AFWTR)

Note: This is SATELLITE DEBRIS
Your satellite tracking list
Your tracking list is empty




NASA's NSSDC Master Catalog

Two Line Element Set (TLE):
1  7191U 73086EZ  26048.23935677 -.00000633  00000-0 -56449-2 0  9998
2  7191 102.1438 300.1933 0247410 203.4353 285.0503 12.13320626881484
Source of the keplerian elements: AFSPC